Location: Alberta Star Party
(51.6612°N, 112.9089°W)
Time: 08:09:06
(UTC-06:00)

Amateur Radio Satellites - All Passes

Search period start: 01 September 2015 07:39
Search period end: 02 September 2015 07:39
Location: Alberta Star Party, 51.6612°N, 112.9089°W

Satellite Date Start Highest point End Downlink Frequencies (MHz)
Time Altitude Azimuth
BRITE-PL 01 Sep 07:59:14 08:03:11 20° 87° (E) 08:07:23 437.365/2234.400
PCSat 01 Sep 08:17:57 08:21:33 17° 13° (NNE) 08:25:09 145.827
Cubesat XI-IV 01 Sep 08:18:46 08:24:08 88° 290° (WNW) 08:29:29 437.490
Cosmos 2491 01 Sep 08:21:05 08:27:11 23° 76° (ENE) 08:33:36 435.465 / 435.565
PHONESAT 2.4 01 Sep 08:24:21 08:25:53 13° 175° (S) 08:27:27 2401.200-2431.200
GOMX 1 01 Sep 08:26:05 08:30:07 21° 87° (E) 08:34:20 467.674
STRAND 1 01 Sep 08:27:30 08:32:10 35° 265° (W) 08:36:49 437.568
CUBESAT XI-V 01 Sep 08:32:07 08:33:03 10° 278° (W) 08:33:44 437.345
Cosmos 2499 01 Sep 08:36:42 08:41:52 16° 320° (NW) 08:46:45 435.465 / 435.565
DOVE 4 01 Sep 08:38:00 08:41:22 17° 85° (E) 08:44:55 437.250
SO-50 01 Sep 08:41:03 08:45:37 35° 31° (NNE) 08:50:09 436.795
PRISM 01 Sep 08:43:02 08:46:31 26° 266° (W) 08:49:58 437.425
AO-7 01 Sep 08:50:59 08:56:45 21° 323° (NW) 09:02:19 29.400- 29.500
AIST 1 01 Sep 09:00:14 09:04:26 66° 97° (E) 09:08:41
CUTE-I 01 Sep 09:03:54 09:08:54 42° 295° (WNW) 09:13:52 437.470
AUBIESAT-1 01 Sep 09:05:07 09:07:27 14° 48° (NE) 09:09:53 437.475
M-CUBED/EXP-1 PRIME 01 Sep 09:10:08 09:13:08 17° 51° (NE) 09:16:11 437.505
CUTE 1.7 + AOD 2 01 Sep 09:14:27 09:17:29 19° 89° (E) 09:20:37 437.475
CINEMA 3 01 Sep 09:20:13 09:23:34 18° 86° (E) 09:26:59 145.822/145.860
YUBILEINY 01 Sep 09:20:24 09:29:18 81° 262° (W) 09:38:06 435.215
CUSAT 1 01 Sep 09:22:04 09:26:49 18° 49° (NE) 09:32:12 437.405
CANX-2 01 Sep 09:28:09 09:31:48 28° 93° (E) 09:35:29 2200.000
BRITE-PL 01 Sep 09:36:50 09:42:17 79° 286° (WNW) 09:47:57 437.365/2234.400
Cosmos 2504 01 Sep 09:36:58 09:44:08 29° 56° (ENE) 09:51:11 435.465 / 435.565
HO-68 01 Sep 09:38:32 09:45:15 41° 96° (E) 09:52:00 435.675
UNISAT 6 01 Sep 09:40:55 09:44:14 20° 59° (ENE) 09:47:40 437.425
SEEDS 01 Sep 09:48:39 09:52:27 32° 95° (E) 09:56:14 437.485
DANDE 01 Sep 09:53:24 09:58:18 20° 53° (NE) 10:04:02 436.750
Oscar 11 01 Sep 09:57:59 10:00:20 15° 86° (E) 10:02:49 145.826/435.025
Cubesat XI-IV 01 Sep 09:59:56 10:03:36 19° 306° (NW) 10:07:07 437.490
PCSat 01 Sep 10:01:29 10:06:31 37° 37° (NE) 10:11:33 145.827
PHONESAT 2.4 01 Sep 10:01:55 10:02:54 11° 192° (SSW) 10:03:51 2401.200-2431.200
GOMX 1 01 Sep 10:03:22 10:08:47 74° 287° (WNW) 10:14:17 467.674
TIGRISAT 01 Sep 10:08:19 10:12:24 30° 64° (ENE) 10:16:33 435.000
COMPASS 1 01 Sep 10:09:37 10:13:34 41° 97° (E) 10:17:31 437.405
Cosmos 2491 01 Sep 10:14:12 10:22:55 85° 100° (E) 10:31:42 435.465 / 435.565
ISS 01 Sep 10:14:18 10:17:04 25° 148° (SSE) 10:19:50 145.825
DOVE 4 01 Sep 10:14:30 10:19:51 87° 290° (WNW) 10:25:11 437.250
AAUSAT CUBESAT 2 01 Sep 10:19:20 10:23:19 44° 98° (E) 10:27:17 437.432
SO-50 01 Sep 10:21:34 10:26:30 64° 233° (SW) 10:31:20 436.795
ANTELSAT 01 Sep 10:25:13 10:29:39 42° 67° (ENE) 10:34:07 437.575/2403.000
AUBIESAT-1 01 Sep 10:36:46 10:41:28 66° 66° (ENE) 10:46:01 437.475
AIST 1 01 Sep 10:39:46 10:42:36 17° 298° (WNW) 10:45:21
DELFI C3 01 Sep 10:40:00 10:43:12 23° 92° (E) 10:46:26 145.870
ZACube-1 01 Sep 10:41:19 10:45:07 26° 92° (E) 10:48:54 437.345
M-CUBED/EXP-1 PRIME 01 Sep 10:42:31 10:47:20 83° 70° (ENE) 10:52:01 437.505
CUBEBUG 2 01 Sep 10:43:15 10:47:47 43° 97° (E) 10:52:11 437.445
POLYITAN 1 01 Sep 10:43:25 10:46:57 26° 63° (ENE) 10:50:34 437.675
AO-7 01 Sep 10:45:07 10:46:22 10° 351° (N) 10:47:32 29.400- 29.500
POPSAT HIP 1 01 Sep 10:45:46 10:49:19 26° 63° (ENE) 10:52:58 437.405
DUCHIFAT 1 01 Sep 10:45:46 10:49:16 26° 63° (ENE) 10:52:50 145.980
FUNcube-1 01 Sep 10:46:24 10:50:17 28° 93° (E) 10:54:09 145.935
UWE-3 01 Sep 10:49:08 10:53:30 39° 96° (E) 10:57:45 435.000/436.395/437.385
CUTE 1.7 + AOD 2 01 Sep 10:49:37 10:53:46 54° 289° (WNW) 10:57:52 437.475
BUGSAT 1 01 Sep 10:51:32 10:54:28 20° 60° (ENE) 10:57:31 437.445
CINEMA 3 01 Sep 10:56:20 11:01:24 77° 285° (WNW) 11:06:20 145.822/145.860
QB50P2 01 Sep 11:02:25 11:06:21 38° 67° (ENE) 11:10:22 145.880/145.840
NANOSAT C BR1 01 Sep 11:03:01 11:06:54 36° 67° (ENE) 11:10:52 145.865
CUSAT 1 01 Sep 11:03:33 11:10:55 59° 71° (ENE) 11:19:05 437.405
CANX-2 01 Sep 11:03:54 11:07:50 37° 293° (WNW) 11:11:42 2200.000
UNISAT 6 01 Sep 11:15:50 11:20:33 73° 257° (WSW) 11:25:18 437.425
BRITE-PL 01 Sep 11:16:34 11:20:07 18° 304° (NW) 11:23:36 437.365/2234.400
QB50P1 01 Sep 11:16:41 11:20:47 49° 70° (ENE) 11:24:58 145.935-145.965
YUBILEINY 01 Sep 11:18:33 11:24:54 22° 285° (WNW) 11:30:54 435.215
HUMSAT D 01 Sep 11:21:42 11:25:18 26° 93° (E) 11:28:52 437.325/437.525
SEEDS 01 Sep 11:24:28 11:28:13 31° 294° (WNW) 11:31:54 437.485
HO-68 01 Sep 11:26:16 11:33:15 54° 297° (WNW) 11:40:11 435.675
DX 1 01 Sep 11:26:37 11:29:34 18° 89° (E) 11:32:38 434.975-435.025
Cosmos 2504 01 Sep 11:28:55 11:37:35 85° 260° (W) 11:45:44 435.465 / 435.565
Oscar 11 01 Sep 11:32:46 11:37:06 76° 288° (WNW) 11:41:24 145.826/435.025
DANDE 01 Sep 11:35:31 11:42:41 67° 74° (ENE) 11:51:05 436.750
UKube-1 01 Sep 11:38:06 11:41:20 20° 91° (E) 11:44:38 .
ESTCUBE 1 01 Sep 11:40:37 11:42:45 13° 85° (E) 11:45:05 437.505/2401.250
GOMX 1 01 Sep 11:42:47 11:46:08 17° 306° (NW) 11:49:24 467.674
TIGRISAT 01 Sep 11:44:31 11:49:00 43° 262° (W) 11:53:31 435.000
PCSat 01 Sep 11:44:53 11:50:14 58° 239° (WSW) 11:55:32 145.827
COMPASS 1 01 Sep 11:45:36 11:49:04 25° 296° (WNW) 11:52:27 437.405
ISS 01 Sep 11:49:55 11:53:11 75° 168° (SSE) 11:56:27 145.825
CUBEBUG 1 01 Sep 11:50:19 11:52:29 14° 86° (E) 11:54:51 437.445
AISAT 01 Sep 11:50:47 11:54:12 21° 91° (E) 11:57:42 437.250
DOVE 4 01 Sep 11:53:18 11:56:57 19° 304° (NW) 12:00:28 437.250
AAUSAT CUBESAT 2 01 Sep 11:55:21 11:58:43 24° 297° (WNW) 12:02:00 437.432
ANTELSAT 01 Sep 12:02:24 12:06:33 30° 267° (W) 12:10:41 437.575/2403.000
SO-50 01 Sep 12:04:17 12:06:12 12° 251° (WSW) 12:07:52 436.795
Oscar 19 01 Sep 12:05:06 12:07:48 15° 51° (NE) 12:10:41 437.125/150
GONETS M04 01 Sep 12:11:22 12:16:48 18° 44° (NE) 12:22:34
AUBIESAT-1 01 Sep 12:12:57 12:16:31 21° 264° (W) 12:19:56 437.475
Cosmos 2491 01 Sep 12:13:39 12:21:03 29° 304° (NW) 12:28:18 435.465 / 435.565
DELFI C3 01 Sep 12:14:39 12:18:26 40° 291° (WNW) 12:22:10 145.870
JAS-2 01 Sep 12:16:04 12:17:10 10° 32° (NNE) 12:18:35 435.910
ZACube-1 01 Sep 12:17:19 12:21:40 44° 292° (WNW) 12:25:53 437.345
VELOX 1 01 Sep 12:18:24 12:22:31 36° 97° (E) 12:26:39 145.980
POLYITAN 1 01 Sep 12:18:34 12:22:41 43° 262° (W) 12:26:49 437.675
M-CUBED/EXP-1 PRIME 01 Sep 12:19:32 12:22:39 17° 267° (W) 12:25:34 437.505
CUBEBUG 2 01 Sep 12:20:11 12:24:19 30° 296° (WNW) 12:28:17 437.445
DUCHIFAT 1 01 Sep 12:20:49 12:24:53 43° 262° (W) 12:28:59 145.980
POPSAT HIP 1 01 Sep 12:20:58 12:25:02 42° 262° (W) 12:29:08 437.405
FUNcube-1 01 Sep 12:22:28 12:26:45 41° 293° (WNW) 12:30:54 145.935
BUGSAT 1 01 Sep 12:25:33 12:29:34 57° 259° (W) 12:33:42 437.445
UWE-3 01 Sep 12:25:49 12:29:56 31° 296° (WNW) 12:33:55 435.000/436.395/437.385
AO-7 01 Sep 12:32:28 12:35:25 12° 20° (NNE) 12:38:34 29.400- 29.500
CINEMA 3 01 Sep 12:34:50 12:37:49 16° 306° (NW) 12:40:38 145.822/145.860
QB50P2 01 Sep 12:38:36 12:42:20 28° 266° (W) 12:46:04 145.880/145.840
NANOSAT C BR1 01 Sep 12:39:04 12:42:48 29° 266° (W) 12:46:33 145.865
CUSAT 1 01 Sep 12:46:21 12:53:23 42° 269° (W) 13:00:54 437.405
50 SAT 01 Sep 12:48:39 12:52:34 86° 104° (ESE) 12:56:26 437.505
Gurwin Techsat 1B 01 Sep 12:51:39 12:54:05 14° 50° (NE) 12:56:42 435.225
QB50P1 01 Sep 12:53:35 12:56:56 22° 269° (W) 13:00:14 145.935-145.965
UNISAT 6 01 Sep 12:56:50 12:58:16 11° 278° (W) 12:59:27 437.425
HUMSAT D 01 Sep 12:57:09 13:01:10 40° 292° (WNW) 13:05:05 437.325/437.525
DX 1 01 Sep 13:01:54 13:06:16 63° 289° (WNW) 13:10:37 434.975-435.025
ITAMSAT 1 01 Sep 13:05:33 13:08:07 14° 51° (NE) 13:10:52 435.822/435.867
Oscar 11 01 Sep 13:10:42 13:12:36 12° 305° (NW) 13:14:21 145.826/435.025
UKube-1 01 Sep 13:13:32 13:17:47 54° 290° (WNW) 13:22:02 .
HO-68 01 Sep 13:15:15 13:19:36 17° 320° (NW) 13:23:44 435.675
ESTCUBE 1 01 Sep 13:15:48 13:20:20 87° 286° (WNW) 13:24:51 437.505/2401.250
SPROUT 01 Sep 13:18:06 13:21:59 31° 95° (E) 13:25:54 437.525
DANDE 01 Sep 13:19:02 13:25:37 36° 270° (W) 13:32:56 436.750
Cosmos 2504 01 Sep 13:22:18 13:28:39 23° 284° (WNW) 13:34:30 435.465 / 435.565
CUBEBUG 1 01 Sep 13:25:04 13:29:31 84° 286° (WNW) 13:33:56 437.445
ISS 01 Sep 13:26:20 13:29:36 87° 197° (SSW) 13:32:52 145.825
AISAT 01 Sep 13:26:43 13:31:07 54° 290° (WNW) 13:35:29 437.250
PCSat 01 Sep 13:31:29 13:32:39 10° 257° (WSW) 13:33:30 145.827
Oscar 19 01 Sep 13:41:12 13:46:20 69° 72° (ENE) 13:51:33 437.125/150
JAS-2 01 Sep 13:53:29 13:59:59 31° 55° (NE) 14:06:33 435.910
VELOX 1 01 Sep 13:55:01 13:59:02 33° 295° (WNW) 14:03:00 145.980
GONETS M04 01 Sep 14:07:25 14:16:06 59° 71° (ENE) 14:24:49
SWISSCUBE 01 Sep 14:18:06 14:21:11 17° 88° (E) 14:24:25 437.505
AO-7 01 Sep 14:18:51 14:25:35 29° 46° (NE) 14:32:27 29.400- 29.500
TISAT 1 01 Sep 14:19:06 14:23:24 72° 103° (ESE) 14:27:41 437.305
50 SAT 01 Sep 14:24:41 14:26:32 13° 303° (WNW) 14:28:15 437.505
Gurwin Techsat 1B 01 Sep 14:27:55 14:33:08 61° 70° (ENE) 14:38:24 435.225
Cosmos 2499 01 Sep 14:29:08 14:36:26 29° 55° (NE) 14:43:34 435.465 / 435.565
DX 1 01 Sep 14:40:20 14:41:44 11° 308° (NW) 14:42:57 434.975-435.025
ITAMSAT 1 01 Sep 14:41:40 14:46:47 66° 70° (ENE) 14:51:57 435.822/435.867
ESTCUBE 1 01 Sep 14:54:01 14:56:36 15° 304° (NW) 14:59:03 437.505/2401.250
SPROUT 01 Sep 14:54:07 14:58:06 35° 294° (WNW) 15:02:01 437.525
ITUPSAT 1 01 Sep 14:56:14 15:00:32 33° 95° (E) 15:04:51 437.325
ISS 01 Sep 15:02:48 15:05:51 36° 207° (SSW) 15:08:53 145.825
CUBEBUG 1 01 Sep 15:02:52 15:05:14 14° 304° (NW) 15:07:28 437.445
HORYU 2 01 Sep 15:06:58 15:10:06 19° 58° (ENE) 15:13:19 437.375
Oscar 19 01 Sep 15:22:19 15:26:15 21° 271° (W) 15:30:06 437.125/150
BEESAT 01 Sep 15:28:45 15:33:30 63° 102° (ESE) 15:38:14 436.000
JAS-2 01 Sep 15:36:29 15:44:19 85° 255° (WSW) 15:52:12 435.910
RS-15 01 Sep 15:48:55 15:57:18 28° 104° (ESE) 16:06:19 29.354- 29.394
SWISSCUBE 01 Sep 15:54:52 15:59:38 73° 287° (WNW) 16:04:23 437.505
TISAT 1 01 Sep 15:55:50 15:58:42 17° 301° (WNW) 16:01:29 437.305
BEESAT 3 01 Sep 16:02:07 16:06:02 47° 125° (SE) 16:09:59 437.485
GONETS M04 01 Sep 16:04:42 16:12:44 41° 274° (W) 16:20:42
STARS 01 Sep 16:06:53 16:10:06 20° 90° (E) 16:13:23 437.465
AO-7 01 Sep 16:09:09 16:17:31 86° 66° (ENE) 16:25:55 29.400- 29.500
Gurwin Techsat 1B 01 Sep 16:09:13 16:13:34 24° 270° (W) 16:17:50 435.225
BEESAT 2 01 Sep 16:15:23 16:19:20 48° 125° (SE) 16:23:19 435.950
Cosmos 2499 01 Sep 16:22:04 16:30:56 87° 261° (W) 16:39:11 435.465 / 435.565
ITAMSAT 1 01 Sep 16:22:49 16:26:50 22° 270° (W) 16:30:44 435.822/435.867
KKS-1 01 Sep 16:26:54 16:31:15 45° 99° (E) 16:35:34 437.445
Cubesat XI-IV 01 Sep 16:32:01 16:32:52 10° 46° (NE) 16:33:56 437.490
ITUPSAT 1 01 Sep 16:34:03 16:38:30 39° 295° (WNW) 16:42:54 437.325
HORYU 2 01 Sep 16:41:48 16:46:18 70° 257° (WSW) 16:50:50 437.375
MOZHAYETS 4 01 Sep 16:46:19 16:48:42 14° 85° (E) 16:51:16
AIST 2 01 Sep 16:57:39 17:01:24 31° 120° (ESE) 17:05:11 435.215
BEESAT 01 Sep 17:07:16 17:10:58 22° 301° (WNW) 17:14:34 436.000
CUTE-I 01 Sep 17:13:17 17:16:58 20° 55° (NE) 17:20:47 437.470
JAS-2 01 Sep 17:24:25 17:30:29 23° 277° (W) 17:36:21 435.910
SWISSCUBE 01 Sep 17:34:16 17:36:45 14° 307° (NW) 17:39:05 437.505
BEESAT 3 01 Sep 17:40:21 17:44:06 33° 325° (NW) 17:47:50 437.485
STARS 01 Sep 17:42:31 17:46:56 59° 290° (WNW) 17:51:18 437.465
BEESAT 2 01 Sep 17:53:46 17:57:32 33° 325° (NW) 18:01:17 435.950
RS-15 01 Sep 17:57:10 18:08:10 83° 128° (SE) 18:19:45 29.354- 29.394
KKS-1 01 Sep 18:03:53 18:07:42 27° 298° (WNW) 18:11:27 437.445
AO-7 01 Sep 18:04:34 18:11:27 27° 271° (W) 18:18:06 29.400- 29.500
Cubesat XI-IV 01 Sep 18:06:47 18:11:49 45° 66° (ENE) 18:16:54 437.490
Cosmos 2499 01 Sep 18:16:23 18:22:57 24° 283° (WNW) 18:29:00 435.465 / 435.565
Cosmos 2491 01 Sep 18:21:43 18:27:03 18° 44° (NE) 18:32:45 435.465 / 435.565
MOZHAYETS 4 01 Sep 18:22:01 18:26:38 83° 286° (WNW) 18:31:11
HO-68 01 Sep 18:29:01 18:33:08 17° 40° (NE) 18:37:27 435.675
AIST 2 01 Sep 18:35:43 18:39:51 47° 320° (NW) 18:43:59 435.215
CUBESAT XI-V 01 Sep 18:41:50 18:45:11 20° 89° (E) 18:48:40 437.345
CUTE-I 01 Sep 18:51:08 18:56:28 86° 252° (WSW) 19:01:50 437.470
AIST 1 01 Sep 19:01:46 19:05:35 30° 69° (ENE) 19:09:27
BRITE-PL 01 Sep 19:15:44 19:19:44 32° 63° (ENE) 19:24:06 437.365/2234.400
BEESAT 3 01 Sep 19:20:48 19:23:08 15° 348° (NNW) 19:25:27 437.485
STARS 01 Sep 19:21:25 19:22:32 11° 308° (NW) 19:23:29 437.465
O/OREOS (USA 219) 01 Sep 19:32:19 19:36:25 35° 108° (ESE) 19:40:37 437.305
BEESAT 2 01 Sep 19:34:20 19:36:42 15° 348° (NNW) 19:39:03 435.950
GOMX 1 01 Sep 19:39:34 19:43:45 34° 64° (ENE) 19:48:16 467.674
Cubesat XI-IV 01 Sep 19:47:17 19:52:06 33° 266° (W) 19:56:53 437.490
DOVE 4 01 Sep 19:48:37 19:52:38 28° 61° (ENE) 19:56:55 437.250
MOZHAYETS 4 01 Sep 20:00:40 20:03:12 15° 305° (NW) 20:05:36
RS-15 01 Sep 20:10:55 20:21:45 51° 338° (NNW) 20:33:06 29.354- 29.394
CUTE 1.7 + AOD 2 01 Sep 20:12:14 20:15:53 28° 65° (ENE) 20:19:36 437.475
HO-68 01 Sep 20:12:34 20:19:27 54° 63° (ENE) 20:26:26 435.675
CUBEBUG 2 01 Sep 20:12:55 20:14:58 13° 53° (NE) 20:17:12 437.445
AIST 2 01 Sep 20:16:27 20:19:22 17° 343° (NNW) 20:22:13 435.215
Cosmos 2491 01 Sep 20:17:46 20:26:23 58° 71° (ENE) 20:35:02 435.465 / 435.565
UWE-3 01 Sep 20:18:23 20:19:53 12° 52° (NE) 20:21:33 435.000/436.395/437.385
CUBESAT XI-V 01 Sep 20:18:29 20:23:05 61° 289° (WNW) 20:27:40 437.345
PRISM 01 Sep 20:19:06 20:22:40 28° 95° (E) 20:26:16 437.425
CANX-2 01 Sep 20:25:59 20:30:00 40° 68° (ENE) 20:34:02 2200.000
CINEMA 3 01 Sep 20:26:44 20:30:50 29° 63° (ENE) 20:35:09 145.822/145.860
STRAND 1 01 Sep 20:31:45 20:36:45 53° 100° (E) 20:41:46 437.568
YUBILEINY 01 Sep 20:33:32 20:40:15 26° 78° (ENE) 20:47:15 435.215
CUTE-I 01 Sep 20:34:17 20:37:27 15° 275° (W) 20:40:24 437.470
AIST 1 01 Sep 20:39:21 20:43:17 34° 268° (W) 20:47:11
SEEDS 01 Sep 20:45:32 20:49:36 46° 70° (ENE) 20:53:41 437.485
BRITE-PL 01 Sep 20:54:00 20:58:13 38° 265° (W) 21:02:45 437.365/2234.400
Oscar 11 01 Sep 20:57:35 21:01:00 23° 62° (ENE) 21:04:30 145.826/435.025
BEESAT 3 01 Sep 21:00:18 21:02:35 14° 12° (NNE) 21:04:53 437.485
COMPASS 1 01 Sep 21:05:37 21:09:45 57° 72° (ENE) 21:13:54 437.405
O/OREOS (USA 219) 01 Sep 21:11:34 21:15:50 38° 308° (NW) 21:20:09 437.305
BEESAT 2 01 Sep 21:13:55 21:16:16 15° 12° (NNE) 21:18:38 435.950
AAUSAT CUBESAT 2 01 Sep 21:14:53 21:19:00 61° 72° (ENE) 21:23:09 437.432
GOMX 1 01 Sep 21:17:28 21:21:50 39° 265° (W) 21:26:30 467.674
DOVE 4 01 Sep 21:25:32 21:30:08 50° 262° (W) 21:35:03 437.250
DELFI C3 01 Sep 21:32:00 21:35:32 30° 66° (ENE) 21:39:06 145.870
ZACube-1 01 Sep 21:41:59 21:46:16 40° 67° (ENE) 21:50:36 437.345
CUBEBUG 2 01 Sep 21:46:10 21:50:50 68° 72° (ENE) 21:55:37 437.445
FUNcube-1 01 Sep 21:46:49 21:51:08 43° 68° (ENE) 21:55:31 145.935
CUTE 1.7 + AOD 2 01 Sep 21:47:40 21:51:42 38° 263° (W) 21:55:44 437.475
VELOX 1 01 Sep 21:48:26 21:49:33 11° 52° (NE) 21:50:50 145.980
UWE-3 01 Sep 21:50:57 21:55:31 60° 71° (ENE) 22:00:11 435.000/436.395/437.385
PRISM 01 Sep 21:54:24 21:58:10 35° 294° (WNW) 22:01:55 437.425
AIST 2 01 Sep 21:57:08 21:59:27 14° 6° (N) 22:01:46 435.215
CUBESAT XI-V 01 Sep 21:58:07 21:59:41 11° 308° (NW) 22:01:06 437.345
HO-68 01 Sep 22:00:43 22:07:27 41° 264° (W) 22:14:10 435.675
CANX-2 01 Sep 22:02:24 22:06:04 26° 267° (W) 22:09:41 2200.000
CINEMA 3 01 Sep 22:03:12 22:07:50 47° 263° (W) 22:12:39 145.822/145.860
50 SAT 01 Sep 22:04:43 22:06:45 14° 58° (ENE) 22:08:54 437.505
STRAND 1 01 Sep 22:11:24 22:15:44 28° 299° (WNW) 22:20:01 437.568
Cosmos 2491 01 Sep 22:15:03 22:23:03 41° 274° (W) 22:30:58 435.465 / 435.565
Cosmos 2504 01 Sep 22:17:11 22:21:47 17° 71° (ENE) 22:26:54 435.465 / 435.565
HUMSAT D 01 Sep 22:18:11 22:22:10 38° 68° (ENE) 22:26:13 437.325/437.525
SEEDS 01 Sep 22:22:11 22:25:37 23° 269° (W) 22:28:59 437.485
RS-15 01 Sep 22:26:16 22:37:07 45° 11° (N) 22:48:28 29.354- 29.394
DX 1 01 Sep 22:27:03 22:30:51 31° 64° (ENE) 22:34:43 434.975-435.025
YUBILEINY 01 Sep 22:27:19 22:36:09 86° 281° (W) 22:45:04 435.215
Oscar 11 01 Sep 22:32:41 22:36:56 50° 261° (W) 22:41:12 145.826/435.025
UKube-1 01 Sep 22:37:44 22:41:38 35° 65° (ENE) 22:45:36 .
BEESAT 3 01 Sep 22:37:56 22:41:38 32° 34° (NE) 22:45:19 437.485
COMPASS 1 01 Sep 22:42:48 22:45:47 18° 271° (W) 22:48:41 437.405
ESTCUBE 1 01 Sep 22:44:56 22:48:31 25° 62° (ENE) 22:52:11 437.505/2401.250
CUBEBUG 1 01 Sep 22:51:14 22:54:37 23° 61° (ENE) 22:58:05 437.445
BEESAT 2 01 Sep 22:51:41 22:55:26 33° 35° (NE) 22:59:09 435.950
AAUSAT CUBESAT 2 01 Sep 22:52:10 22:55:01 17° 272° (W) 22:57:46 437.432
AISAT 01 Sep 22:53:26 22:57:29 37° 66° (ENE) 23:01:35 437.250
O/OREOS (USA 219) 01 Sep 22:55:34 22:56:41 11° 332° (NNW) 22:57:41 437.305
UNISAT 6 01 Sep 23:03:28 23:06:28 17° 87° (E) 23:09:33 437.425
DELFI C3 01 Sep 23:06:53 23:10:33 32° 264° (W) 23:14:13 145.870
ZACube-1 01 Sep 23:18:39 23:22:43 30° 267° (W) 23:26:46 437.345
VELOX 1 01 Sep 23:20:57 23:25:17 62° 71° (ENE) 23:29:41 145.980
FUNcube-1 01 Sep 23:23:38 23:27:36 28° 268° (W) 23:31:33 145.935
CUBEBUG 2 01 Sep 23:24:38 23:28:02 19° 273° (W) 23:31:22 437.445
UWE-3 01 Sep 23:28:55 23:32:28 21° 271° (W) 23:35:57 435.000/436.395/437.385
TIGRISAT 01 Sep 23:30:56 23:34:56 29° 93° (E) 23:38:52 435.000
AIST 2 01 Sep 23:35:43 23:39:19 27° 30° (NNE) 23:42:55 435.215
50 SAT 01 Sep 23:36:47 23:40:46 81° 259° (WSW) 23:44:44 437.505
TISAT 1 01 Sep 23:42:33 23:45:07 16° 58° (ENE) 23:47:49 437.305
AUBIESAT-1 01 Sep 23:47:54 23:50:42 19° 95° (E) 23:53:26 437.475
ANTELSAT 01 Sep 23:48:19 23:52:43 42° 97° (E) 23:57:00 437.575/2403.000
M-CUBED/EXP-1 PRIME 01 Sep 23:54:04 23:57:26 25° 98° (E) 00:00:37 437.505
HUMSAT D 01 Sep 23:54:11 23:57:59 29° 266° (W) 00:01:46 437.325/437.525
POLYITAN 1 01 Sep 23:58:46 00:02:07 22° 91° (E) 00:05:32 437.675
DUCHIFAT 1 02 Sep 00:00:17 00:03:34 21° 91° (E) 00:06:55 145.980
POPSAT HIP 1 02 Sep 00:00:51 00:04:15 22° 91° (E) 00:07:41 437.405
DX 1 02 Sep 00:03:01 00:07:02 36° 263° (W) 00:11:05 434.975-435.025
BUGSAT 1 02 Sep 00:03:12 00:05:41 15° 87° (E) 00:08:19 437.445
Cosmos 2504 02 Sep 00:04:18 00:12:27 66° 93° (E) 00:20:59 435.465 / 435.565
UKube-1 02 Sep 00:13:55 00:17:48 31° 265° (W) 00:21:41 .
BEESAT 3 02 Sep 00:15:48 00:19:42 47° 235° (SW) 00:23:33 437.485
SPROUT 02 Sep 00:17:09 00:21:17 48° 69° (ENE) 00:25:29 437.525
CUSAT 1 02 Sep 00:17:12 00:21:07 32° 87° (E) 00:26:12 437.405
QB50P2 02 Sep 00:17:50 00:21:44 33° 95° (E) 00:25:39 145.880/145.840
NANOSAT C BR1 02 Sep 00:17:54 00:21:45 31° 95° (E) 00:25:36 145.865
ESTCUBE 1 02 Sep 00:20:48 00:25:09 50° 261° (W) 00:29:32 437.505/2401.250
CUBEBUG 1 02 Sep 00:26:28 00:30:41 51° 260° (W) 00:34:58 437.445
YUBILEINY 02 Sep 00:27:18 00:34:31 26° 307° (NW) 00:41:33 435.215
BEESAT 2 02 Sep 00:29:40 00:33:36 46° 236° (SW) 00:37:27 435.950
AISAT 02 Sep 00:30:09 00:34:07 31° 265° (W) 00:38:03 437.250
QB50P1 02 Sep 00:31:57 00:36:05 43° 98° (E) 00:40:11 145.935-145.965
ITUPSAT 1 02 Sep 00:33:34 00:35:45 13° 52° (NE) 00:38:05 437.325
UNISAT 6 02 Sep 00:39:11 00:43:48 69° 288° (WNW) 00:48:16 437.425
RS-15 02 Sep 00:39:57 00:51:39 74° 41° (NE) 01:03:52 29.354- 29.394
SO-50 02 Sep 00:43:45 00:45:33 12° 109° (ESE) 00:47:36 436.795
DANDE 02 Sep 00:54:09 00:57:49 40° 91° (E) 01:02:42 436.750
VELOX 1 02 Sep 00:59:08 01:02:17 18° 271° (W) 01:05:20 145.980
BEESAT 02 Sep 01:04:12 01:07:49 22° 59° (ENE) 01:11:32 436.000
TIGRISAT 02 Sep 01:07:27 01:11:48 41° 293° (WNW) 01:16:01 435.000
AIST 2 02 Sep 01:14:05 01:18:17 72° 231° (SW) 01:22:25 435.215
TISAT 1 02 Sep 01:16:09 01:20:23 77° 256° (WSW) 01:24:39 437.305
AUBIESAT-1 02 Sep 01:21:51 01:25:49 50° 297° (WNW) 01:29:27 437.475
ANTELSAT 02 Sep 01:25:20 01:29:21 29° 297° (WNW) 01:33:12 437.575/2403.000
GONETS M04 02 Sep 01:25:33 01:28:35 13° 68° (ENE) 01:32:10
M-CUBED/EXP-1 PRIME 02 Sep 01:28:31 01:32:24 39° 300° (WNW) 01:35:56 437.505
SWISSCUBE 02 Sep 01:29:27 01:33:47 37° 65° (ENE) 01:38:10 437.505
POLYITAN 1 02 Sep 01:34:06 01:38:18 49° 291° (WNW) 01:42:27 437.675
DUCHIFAT 1 02 Sep 01:35:29 01:39:40 50° 290° (WNW) 01:43:48 145.980
POPSAT HIP 1 02 Sep 01:36:12 01:40:22 48° 291° (WNW) 01:44:31 437.405
BUGSAT 1 02 Sep 01:37:24 01:41:40 71° 288° (WNW) 01:45:55 437.445
Oscar 19 02 Sep 01:48:21 01:51:31 16° 86° (E) 01:54:51 437.125/150
NANOSAT C BR1 02 Sep 01:53:41 01:57:36 34° 294° (WNW) 02:01:28 145.865
QB50P2 02 Sep 01:53:43 01:57:37 33° 294° (WNW) 02:01:27 145.880/145.840
SPROUT 02 Sep 01:54:10 01:57:38 23° 269° (W) 02:01:02 437.525
KKS-1 02 Sep 01:56:21 01:58:33 14° 55° (NE) 02:00:55 437.445
Cosmos 2504 02 Sep 01:57:35 02:05:18 38° 297° (WNW) 02:13:10 435.465 / 435.565
CUSAT 1 02 Sep 01:59:13 02:03:30 40° 296° (WNW) 02:09:07 437.405
ITUPSAT 1 02 Sep 02:08:07 02:12:52 69° 71° (ENE) 02:17:38 437.325
QB50P1 02 Sep 02:08:09 02:11:45 26° 297° (WNW) 02:15:18 145.935-145.965
UNISAT 6 02 Sep 02:17:44 02:19:47 13° 307° (NW) 02:21:38 437.425
SO-50 02 Sep 02:20:28 02:25:16 66° 128° (SE) 02:30:13 436.795
PCSat 02 Sep 02:31:41 02:36:44 43° 117° (ESE) 02:41:52 145.827
DANDE 02 Sep 02:37:36 02:41:13 27° 302° (WNW) 02:45:48 436.750
Gurwin Techsat 1B 02 Sep 02:39:42 02:42:49 16° 85° (E) 02:46:08 435.225
BEESAT 02 Sep 02:40:34 02:45:18 63° 258° (WSW) 02:50:04 436.000
JAS-2 02 Sep 02:43:51 02:46:26 12° 74° (ENE) 02:49:19 435.910
ITAMSAT 1 02 Sep 02:50:12 02:53:08 15° 85° (E) 02:56:16 435.822/435.867
RS-15 02 Sep 02:52:45 03:03:44 47° 246° (WSW) 03:14:57 29.354- 29.394
AIST 2 02 Sep 02:54:52 02:56:08 11° 249° (WSW) 02:57:12 435.215
SWISSCUBE 02 Sep 03:07:17 03:11:40 35° 264° (W) 03:16:02 437.505
STARS 02 Sep 03:08:35 03:12:33 34° 65° (ENE) 03:16:35 437.465
BUGSAT 1 02 Sep 03:14:49 03:16:26 12° 305° (NW) 03:17:52 437.445
GONETS M04 02 Sep 03:15:12 03:23:30 54° 90° (E) 03:31:56
Cosmos 2499 02 Sep 03:15:17 03:20:21 18° 72° (ENE) 03:25:53 435.465 / 435.565
Oscar 19 02 Sep 03:26:24 03:31:40 87° 290° (WNW) 03:36:53 437.125/150
KKS-1 02 Sep 03:30:03 03:34:31 80° 73° (ENE) 03:39:02 437.445
ITUPSAT 1 02 Sep 03:47:55 03:51:19 19° 272° (W) 03:54:34 437.325
MOZHAYETS 4 02 Sep 03:52:58 03:56:45 26° 63° (ENE) 04:00:35
O/OREOS (USA 219) 02 Sep 03:57:26 04:01:29 30° 48° (NE) 04:05:34 437.305
Cosmos 2504 02 Sep 03:57:42 04:00:47 12° 326° (NW) 04:03:32 435.465 / 435.565
SO-50 02 Sep 04:01:41 04:06:11 34° 330° (NNW) 04:10:44 436.795
AO-7 02 Sep 04:05:40 04:11:17 20° 85° (E) 04:17:14 29.400- 29.500
PCSat 02 Sep 04:14:58 04:20:11 46° 318° (NW) 04:25:26 145.827
Gurwin Techsat 1B 02 Sep 04:18:18 04:23:39 90° 94° (E) 04:29:00 435.225
JAS-2 02 Sep 04:26:21 04:33:29 60° 98° (E) 04:39:46 435.910
ITAMSAT 1 02 Sep 04:28:15 04:33:29 89° 99° (E) 04:38:42 435.822/435.867
HORYU 2 02 Sep 04:28:40 04:31:19 16° 87° (E) 04:34:06 437.375
STARS 02 Sep 04:44:56 04:49:00 34° 264° (W) 04:53:03 437.465
Cosmos 2499 02 Sep 05:03:28 05:11:57 68° 94° (E) 05:20:48 435.465 / 435.565
Oscar 19 02 Sep 05:06:52 05:10:22 18° 306° (NW) 05:13:44 437.125/150
KKS-1 02 Sep 05:09:11 05:11:47 15° 274° (W) 05:14:15 437.445
RS-15 02 Sep 05:10:31 05:13:21 11° 269° (W) 05:15:04 29.354- 29.394
GONETS M04 02 Sep 05:12:23 05:20:39 45° 294° (WNW) 05:28:56
MOZHAYETS 4 02 Sep 05:29:17 05:33:45 48° 261° (W) 05:38:14
O/OREOS (USA 219) 02 Sep 05:36:41 05:41:09 48° 249° (WSW) 05:45:33 437.305
SO-50 02 Sep 05:44:32 05:48:05 19° 353° (N) 05:51:37 436.795
CUBESAT XI-V 02 Sep 05:50:14 05:54:23 35° 66° (ENE) 05:58:35 437.345
AO-7 02 Sep 05:57:17 06:05:39 78° 108° (ESE) 06:13:58 29.400- 29.500
Gurwin Techsat 1B 02 Sep 05:59:19 06:03:02 19° 305° (NW) 06:06:37 435.225
PCSat 02 Sep 06:01:06 06:04:58 19° 343° (NNW) 06:08:48 145.827
HORYU 2 02 Sep 06:04:03 06:08:33 74° 288° (WNW) 06:12:59 437.375
ITAMSAT 1 02 Sep 06:08:48 06:12:23 19° 305° (NW) 06:15:51 435.822/435.867
JAS-2 02 Sep 06:11:43 06:18:14 36° 302° (WNW) 06:24:03 435.910
STRAND 1 02 Sep 06:15:25 06:19:24 24° 59° (ENE) 06:23:29 437.568
Cubesat XI-IV 02 Sep 06:20:42 06:22:07 11° 81° (E) 06:23:49 437.490
VERMONT LUNAR 02 Sep 06:27:48 06:28:14 10° 183° (S) 06:28:40 437.305
YUBILEINY 02 Sep 06:34:37 06:40:36 20° 46° (NE) 06:46:51 435.215
Cosmos 2499 02 Sep 06:57:49 07:05:50 38° 298° (WNW) 07:13:57 435.465 / 435.565
CUTE-I 02 Sep 07:03:06 07:07:26 25° 91° (E) 07:11:51 437.470
PRISM 02 Sep 07:14:00 07:17:52 43° 68° (ENE) 07:21:47 437.425
GONETS M04 02 Sep 07:16:21 07:20:36 14° 323° (NW) 07:24:30
SO-50 02 Sep 07:26:19 07:30:14 22° 17° (NNE) 07:34:09 436.795
CUBESAT XI-V 02 Sep 07:27:38 07:31:50 34° 265° (W) 07:36:02 437.345
